sat.trackr.live / text

‹ back to catalog

PAUSAT-1

NORAD 62653 · 2025-009AW

PAYLOAD ACTIVE UNKNOWN

§ Identity

Operator
Country
TURK
Launch date
2025-01-14
Launch site
AFWTR
Launch vehicle
Mass (kg)
RCS (m²)

External: N2YO · Heavens-Above · Gunter

§ Orbital elements

Epoch: 2026-09-22T21:15:24.817824Z

Period
94.48 min
Inclination
97.3892°
Eccentricity
0.0001736
Mean motion
15.24181068 rev/d
Perigee alt
492.1 km
Apogee alt
494.4 km
Semi-major
6,871.4 km
B*
1.1313e-4
RAAN
344.1460°
Arg perigee
38.4778°
Mean anomaly
321.6583°
Rev number
9,366

§ Raw data

PAUSAT-11 62653U 25009AW  26265.88570391  .00002684  00000+0  11313-3 0  99912 62653  97.3892 344.1460 0001736  38.4778 321.6583 15.24181068 93666

JSON: /api/v1/satellites/62653 · /tle

For live sub-satellite position, see the globe view (requires WebGL).

§ Visibility from observer

Set your observer location to see the next 7 days of passes ≥ 10°. The values pass through the URL so the page stays shareable.

No JS? Fill the form by hand. The geolocation button needs JavaScript.

§ Radio — SatNOGS DB

ModeDescriptionDownlinkUplink
FM Mode S - Transmitter 2.263 GHz
FM Mode X - Transmitter 8.343 GHz

2 transmitters · refreshed weekly from db.satnogs.org